Location: Newark
(41.0400°S, 62.7845°W)
Time: 20:44:30
(UTC+00:00)

Courier 1B Rocket - Pass Details

Date: 30 November 2021
Orbit: 920 x 1202 km, 28.2° (Epoch: 21 January)

Event Time Altitude Azimuth Distance (km) Brightness Sun altitude
Rises 16:23:10 0° 307° (NW) 4,074 8.5 70.1°
Reaches altitude 10° 16:26:28 10° 318° (NW) 3,129 8.1 69.9°
Maximum altitude 16:32:47 27° 12° (NNE) 2,127 7.5 69.5°
Drops below altitude 10° 16:39:03 10° 66° (ENE) 3,114 7.8 69.0°
Sets 16:42:19 0° 77° (ENE) 4,051 8.2 68.7°
